Location: Saratoga Springs
(43.0831°N, 73.7850°W)
Time: 12:36:41
(UTC-04:00)

Vanguard 1 Rocket - Pass Details

Date: 23 April 2024
Orbit: 651 x 4220 km, 34.3° (Epoch: 19 May)

Event Time Altitude Azimuth Distance (km) Brightness Sun altitude
Rises 00:15:50 0° 267° (W) 4,175 10.9 -33.6°
Reaches altitude 10° 00:18:44 10° 254° (WSW) 3,573 10.3 -33.7°
Enters shadow 00:20:18 15° 245° (WSW) 3,354 10.1 -33.7°
